Language: 


Des rapports , des résumés tant et plus, au choix de chacun....


Données statistiques de la station
Quotidien Rapport Février 25, 2017 Unités:  Anglais    Métrique   les deux
« Précédent Jour
Suivant Jour »
Quotidien Hebdomadaire Mensuel Annuel Actuel
  Haut: Bas: Moyen:
Température: 51.6 °F 32 °F 42.4 °F
Pt de rosée: 41.7 °F 31.1 °F 37.2 °F
Humidité: 98 % 0 % 83 %
Vitesse du vent: 17.2 mph 0 mph 6 mph
Rafales: 23 mph - -
Vent:- - SSW
Pression: 30.2 in 29.9 in -
Précipitation: 0 in    
Historical Graphs
 
 
Données statistiques pour Février 25, 2017
Heure Température Point de rosée Pression Vent Vitesse du vent Refales Humidité Pluie (taux horaire)
00:02 32.4 °F 31.1 °F 30.2 in Calm   3.4 mph 95 % 0 in
00:07 32.5 °F 31.3 °F 30.1 in Calm   3.4 mph 95 % 0 in
00:12 32.7 °F 31.5 °F 30.1 in SSW 0.9 mph 3.4 mph 95 % 0 in
00:17 33.1 °F 31.8 °F 30.1 in SSW 3.4 mph 4.5 mph 95 % 0 in
00:22 33.3 °F 32.2 °F 30.1 in SSW 2 mph 4.5 mph 96 % 0 in
00:27 33.4 °F 32.4 °F 30.1 in South 0.9 mph 4.3 mph 96 % 0 in
00:32 33.6 °F 32.5 °F 30.1 in SSW 3.4 mph 4.3 mph 96 % 0 in
00:37 34 °F 32.9 °F 30.1 in Calm   4 mph 96 % 0 in
00:42 34.2 °F 33.1 °F 30.1 in South 3.4 mph 4.3 mph 96 % 0 in
00:47 34.3 °F 33.3 °F 30.1 in South 2.7 mph 4.3 mph 96 % 0 in
00:52 34.5 °F 33.4 °F 30.2 in SSW 2.7 mph 4.9 mph 96 % 0 in
00:57 34.5 °F 33.6 °F 30.2 in South 3.6 mph 4.9 mph 96 % 0 in
01:02 34.9 °F 33.8 °F 30.2 in SSW 3.1 mph 4.3 mph 96 % 0 in
01:07 35.1 °F 34 °F 30.2 in SSW 2.9 mph 4.9 mph 96 % 0 in
01:12 35.1 °F 34 °F 30.2 in SW 2 mph 4.9 mph 96 % 0 in
01:17 35.1 °F 34 °F 30.2 in Calm   4.3 mph 96 % 0 in
01:22 35.1 °F 34 °F 30.1 in SSW 2.7 mph 4.3 mph 96 % 0 in
01:23 35.1 °F 34 °F 30.1 in SSW 3.8 mph 4.3 mph 96 % 0 in
01:28 34.9 °F 33.4 °F 30.1 in SW 2.5 mph 4.3 mph 95 % 0 in
01:33 34.9 °F 33.4 °F 30.1 in SW 1.1 mph 3.8 mph 95 % 0 in
01:38 34.9 °F 33.4 °F 30.2 in West 0.9 mph 3.8 mph 95 % 0 in
01:43 34.9 °F 33.4 °F 30.2 in South 2 mph 3.8 mph 95 % 0 in
01:48 34.5 °F 33.4 °F 30.2 in Calm   3.8 mph 95 % 0 in
01:53 34.5 °F 33.3 °F 30.2 in Calm   2.7 mph 95 % 0 in
01:58 34.3 °F 33.1 °F 30.2 in WSW 2 mph 2.7 mph 95 % 0 in
02:03 34.2 °F 32.7 °F 30.2 in Calm   2.7 mph 95 % 0 in
02:08 34 °F 32.7 °F 30.1 in Calm   2 mph 95 % 0 in
02:13 33.8 °F 32.5 °F 30.1 in SW 2.2 mph 2.2 mph 95 % 0 in
02:18 33.6 °F 32.4 °F 30.1 in SSW 2.5 mph 3.4 mph 95 % 0 in
02:23 33.6 °F 32.4 °F 30.1 in WSW 2.5 mph 3.4 mph 95 % 0 in
02:28 33.6 °F 32.4 °F 30.1 in WSW 3.1 mph 3.4 mph 95 % 0 in
02:33 34 °F 32.7 °F 30.1 in WSW 2.5 mph 4.3 mph 95 % 0 in
02:38 33.8 °F 32.7 °F 30.1 in WSW 2.7 mph 4.3 mph 96 % 0 in
02:43 33.8 °F 32.7 °F 30.1 in Calm   3.1 mph 96 % 0 in
02:48 33.6 °F 32.5 °F 30.1 in South 2.5 mph 3.1 mph 96 % 0 in
02:53 33.6 °F 32.5 °F 30.1 in SSW 2.7 mph 3.4 mph 96 % 0 in
02:58 33.6 °F 32.5 °F 30.1 in Calm   3.4 mph 96 % 0 in
03:03 33.4 °F 32.4 °F 30.1 in Calm   2.9 mph 96 % 0 in
03:08 32 °F 32.4 °F 30.1 in SW 1.3 mph 2.2 mph 0 % 0 in
03:13 33.4 °F 32.4 °F 30.1 in SSW 2.5 mph 3.4 mph 96 % 0 in
03:18 33.4 °F 32.4 °F 30.1 in SSW 2.2 mph 3.4 mph 96 % 0 in
03:23 33.4 °F 32.7 °F 30.1 in SSW 2.7 mph 3.1 mph 97 % 0 in
03:28 33.6 °F 32.7 °F 30.1 in SSW 2 mph 2.9 mph 97 % 0 in
03:33 33.6 °F 32.7 °F 30.1 in SSW 2.5 mph 3.6 mph 97 % 0 in
03:38 33.6 °F 32.7 °F 30.1 in South 2.5 mph 3.6 mph 97 % 0 in
03:43 33.8 °F 33.1 °F 30.1 in South 2.9 mph 3.6 mph 97 % 0 in
03:48 34 °F 33.3 °F 30.1 in SSW 2 mph 3.8 mph 97 % 0 in
03:53 34.2 °F 33.4 °F 30.1 in SW 2.9 mph 4 mph 97 % 0 in
03:58 34.3 °F 33.4 °F 30.1 in SW 2.7 mph 4 mph 97 % 0 in
04:03 34.3 °F 33.4 °F 30.1 in SSW 2.2 mph 3.6 mph 97 % 0 in
04:08 34.3 °F 33.4 °F 30.1 in SSW 1.6 mph 3.8 mph 97 % 0 in
04:13 34.3 °F 33.4 °F 30.1 in WSW 3.4 mph 3.8 mph 97 % 0 in
04:18 34.5 °F 33.6 °F 30.1 in SW 2.2 mph 4 mph 97 % 0 in
04:23 34.5 °F 33.6 °F 30.1 in SSW 2 mph 4.9 mph 97 % 0 in
04:28 34.5 °F 34 °F 30.1 in SW 2.9 mph 5.4 mph 97 % 0 in
04:29 34.5 °F 34 °F 30.1 in WSW 2.9 mph 5.4 mph 97 % 0 in
04:34 34.5 °F 34 °F 30.1 in SSW 2.5 mph 5.4 mph 97 % 0 in
04:39 34.9 °F 34.2 °F 30.1 in WSW 2 mph 4 mph 97 % 0 in
04:44 34.5 °F 34 °F 30.1 in SW 2.7 mph 3.4 mph 97 % 0 in
04:49 34.5 °F 33.6 °F 30.1 in SSW 3.8 mph 4 mph 97 % 0 in
04:54 34.5 °F 34 °F 30.1 in SW 3.4 mph 4 mph 97 % 0 in
04:59 34.9 °F 34.2 °F 30.1 in South 2.5 mph 6.3 mph 97 % 0 in
05:04 35.1 °F 34.5 °F 30.1 in SSW 3.6 mph 6.3 mph 98 % 0 in
05:09 35.2 °F 34.7 °F 30.1 in South 4.7 mph 6.5 mph 98 % 0 in
05:14 35.4 °F 34.9 °F 30.1 in South 4.7 mph 6.5 mph 98 % 0 in
05:19 35.4 °F 34.9 °F 30.1 in South 3.8 mph 6 mph 98 % 0 in
05:24 35.4 °F 34.9 °F 30.1 in South 5.6 mph 7.2 mph 98 % 0 in
05:29 35.4 °F 34.9 °F 30.1 in South 4.3 mph 7.2 mph 98 % 0 in
05:34 35.4 °F 34.9 °F 30.1 in South 4.5 mph 7.8 mph 97 % 0 in
05:39 35.4 °F 34.9 °F 30.1 in South 5.8 mph 7.8 mph 97 % 0 in
05:44 35.8 °F 34.9 °F 30.1 in South 4 mph 6 mph 97 % 0 in
05:49 35.8 °F 34.9 °F 30.1 in South 3.6 mph 6.5 mph 97 % 0 in
05:54 35.8 °F 34.9 °F 30.1 in SSW 6 mph 6.5 mph 97 % 0 in
05:59 35.8 °F 34.9 °F 30.1 in SSW 2.7 mph 6 mph 97 % 0 in
06:04 36 °F 35.1 °F 30.1 in SSW 5.4 mph 6.5 mph 97 % 0 in
06:09 36.1 °F 35.2 °F 30.1 in South 3.8 mph 7.8 mph 97 % 0 in
06:14 36.1 °F 35.2 °F 30.1 in SW 4.3 mph 7.8 mph 97 % 0 in
06:19 36.1 °F 35.2 °F 30.1 in SSW 4 mph 6.3 mph 97 % 0 in
06:24 36.1 °F 35.2 °F 30.1 in SSW 3.8 mph 5.8 mph 97 % 0 in
06:29 36.1 °F 35.2 °F 30.1 in SSW 4.7 mph 7.6 mph 97 % 0 in
06:34 36.1 °F 35.2 °F 30.1 in SSW 3.4 mph 7.6 mph 97 % 0 in
06:39 36.1 °F 35.4 °F 30.1 in SW 5.4 mph 9.6 mph 97 % 0 in
06:44 36.1 °F 35.4 °F 30.1 in South 6.5 mph 9.6 mph 97 % 0 in
06:49 36.1 °F 35.2 °F 30.1 in SSW 4 mph 8.1 mph 96 % 0 in
06:54 36.1 °F 35.1 °F 30.1 in SW 4.3 mph 7.8 mph 96 % 0 in
06:59 36.1 °F 35.1 °F 30.1 in SSW 5.8 mph 7.8 mph 96 % 0 in
07:04 36.1 °F 35.1 °F 30.1 in SSW 3.6 mph 7.2 mph 96 % 0 in
07:09 36.1 °F 35.1 °F 30.1 in SSW 6.3 mph 7.2 mph 96 % 0 in
07:14 36.1 °F 35.1 °F 30.1 in SW 3.1 mph 6.3 mph 96 % 0 in
07:19 36.1 °F 35.2 °F 30.1 in SSW 2.9 mph 6.5 mph 96 % 0 in
07:24 36.1 °F 35.2 °F 30.1 in SSW 4 mph 6.5 mph 96 % 0 in
07:29 36.1 °F 34.9 °F 30.1 in SSW 4 mph 6.5 mph 95 % 0 in
07:34 36.1 °F 34.9 °F 30.1 in SSW 6 mph 6.5 mph 95 % 0 in
07:39 36.1 °F 34.9 °F 30.1 in South 3.8 mph 6.3 mph 95 % 0 in
07:44 36.1 °F 34.9 °F 30.1 in SSW 5.8 mph 6.9 mph 95 % 0 in
07:49 36.3 °F 35.1 °F 30.1 in South 8.1 mph 8.1 mph 95 % 0 in
07:54 36.3 °F 35.1 °F 30.1 in South 4.7 mph 10.1 mph 95 % 0 in
07:59 36.7 °F 35.1 °F 30.1 in SSW 5.6 mph 10.3 mph 94 % 0 in
08:04 36.7 °F 35.1 °F 30.1 in South 4 mph 10.3 mph 94 % 0 in
08:09 36.9 °F 34.9 °F 30.1 in South 6 mph 8.9 mph 93 % 0 in
08:14 36.9 °F 34.9 °F 30.1 in SSW 6 mph 8.9 mph 93 % 0 in
08:19 36.9 °F 34.7 °F 30.1 in South 5.6 mph 8.7 mph 92 % 0 in
08:24 36.9 °F 34.7 °F 30.1 in SSW 7.4 mph 7.4 mph 92 % 0 in
08:29 36.9 °F 34.9 °F 30.1 in South 3.8 mph 7.8 mph 92 % 0 in
08:34 37 °F 35.1 °F 30.1 in South 6.7 mph 7.8 mph 92 % 0 in
08:39 37.2 °F 35.2 °F 30.1 in SSW 4.9 mph 8.1 mph 92 % 0 in
08:44 37.6 °F 35.2 °F 30.1 in SSW 7.2 mph 10.3 mph 91 % 0 in
08:49 37.8 °F 35.4 °F 30.1 in SSW 12.5 mph 12.5 mph 91 % 0 in
08:54 38.5 °F 36.1 °F 30.1 in SSW 10.1 mph 12.5 mph 91 % 0 in
08:59 38.5 °F 35.8 °F 30.1 in SSW 8.7 mph 12.5 mph 90 % 0 in
09:04 38.5 °F 35.4 °F 30.1 in WSW 5.4 mph 12.5 mph 89 % 0 in
09:09 38.5 °F 35.1 °F 30.1 in SSW 6.5 mph 12.3 mph 88 % 0 in
09:14 38.5 °F 35.2 °F 30.1 in SSW 5.8 mph 10.1 mph 88 % 0 in
09:19 38.7 °F 35.4 °F 30.1 in SSW 5.4 mph 9.8 mph 88 % 0 in
09:24 38.7 °F 35.4 °F 30.1 in SSW 7.6 mph 8.7 mph 88 % 0 in
09:29 38.8 °F 35.6 °F 30.1 in South 6 mph 10.5 mph 88 % 0 in
09:34 39 °F 35.4 °F 30.1 in WSW 10.5 mph 11.4 mph 87 % 0 in
09:39 39 °F 35.4 °F 30.1 in South 8.1 mph 12.1 mph 87 % 0 in
09:44 39.4 °F 36 °F 30.1 in SSW 5.8 mph 12.1 mph 87 % 0 in
09:49 39.6 °F 36 °F 30.1 in South 6.3 mph 10.3 mph 87 % 0 in
09:54 39.6 °F 36 °F 30.1 in SSW 8.1 mph 10.3 mph 87 % 0 in
09:59 39.6 °F 36 °F 30.1 in SSW 5.6 mph 10.3 mph 87 % 0 in
10:04 40.5 °F 36.7 °F 30.1 in South 5.4 mph 10.1 mph 86 % 0 in
10:09 40.6 °F 36.9 °F 30.1 in SSW 7.8 mph 10.7 mph 86 % 0 in
10:14 41.2 °F 37 °F 30.1 in SSW 4.7 mph 10.7 mph 85 % 0 in
10:19 41.5 °F 37.4 °F 30.1 in SSW 7.4 mph 11 mph 85 % 0 in
10:24 41.9 °F 37.8 °F 30.1 in SSW 8.5 mph 12.3 mph 85 % 0 in
10:29 42.1 °F 37.6 °F 30.1 in SW 8.5 mph 12.3 mph 84 % 0 in
10:34 42.4 °F 37.6 °F 30.1 in South 6 mph 12.1 mph 83 % 0 in
10:39 42.6 °F 37.8 °F 30.1 in SSW 6.5 mph 10.3 mph 83 % 0 in
10:44 43 °F 37.6 °F 30.1 in SW 5.8 mph 11 mph 81 % 0 in
10:49 43.3 °F 37.9 °F 30.1 in SSW 6 mph 11 mph 81 % 0 in
10:54 43.5 °F 37.9 °F 30.1 in SSW 8.5 mph 11 mph 81 % 0 in
10:59 43.5 °F 37.6 °F 30.1 in SSW 9.8 mph 12.8 mph 79 % 0 in
11:04 43.9 °F 36.7 °F 30.1 in SSW 8.1 mph 15.2 mph 76 % 0 in
11:09 43.9 °F 36.7 °F 30.1 in SSW 8.5 mph 15.2 mph 76 % 0 in
11:14 44.1 °F 36.7 °F 30.1 in SSW 12.8 mph 17.7 mph 75 % 0 in
11:19 44.1 °F 36.7 °F 30.1 in SSW 8.7 mph 17.7 mph 75 % 0 in
11:24 44.1 °F 36.7 °F 30.1 in SSW 10.1 mph 14.8 mph 75 % 0 in
11:29 44.2 °F 36.7 °F 30.1 in SW 12.5 mph 14.8 mph 74 % 0 in
11:34 44.4 °F 36.7 °F 30.1 in SSW 8.5 mph 14.8 mph 74 % 0 in
11:39 44.8 °F 36.9 °F 30.1 in SW 8.5 mph 12.5 mph 74 % 0 in
11:44 45.1 °F 36.9 °F 30.1 in SW 7.6 mph 12.5 mph 73 % 0 in
11:49 45.3 °F 37.2 °F 30.1 in SSW 10.1 mph 12.1 mph 73 % 0 in
11:54 45.7 °F 37 °F 30.1 in SW 10.3 mph 12.1 mph 72 % 0 in
11:59 45.7 °F 37 °F 30.1 in SSW 8.1 mph 10.3 mph 72 % 0 in
12:04 45.7 °F 37 °F 30.1 in SSW 13.2 mph 13.2 mph 72 % 0 in
12:09 45.9 °F 36.9 °F 30.1 in SSW 8.7 mph 13.2 mph 71 % 0 in
12:14 45.9 °F 37.4 °F 30.1 in South 6 mph 11.9 mph 72 % 0 in
12:19 46.6 °F 37.6 °F 30.1 in South 5.6 mph 14.8 mph 71 % 0 in
12:24 46.6 °F 37.2 °F 30.1 in SW 6.5 mph 14.8 mph 70 % 0 in
12:29 46.9 °F 38.1 °F 30.1 in SSW 7.6 mph 14.5 mph 71 % 0 in
12:34 47.3 °F 38.5 °F 30.1 in South 9.6 mph 15.7 mph 71 % 0 in
12:39 47.7 °F 38.8 °F 30 in SSW 10.5 mph 15.7 mph 71 % 0 in
12:44 47.7 °F 37.9 °F 30 in South 12.1 mph 12.3 mph 69 % 0 in
12:49 48.2 °F 38.5 °F 30 in SSW 8.1 mph 15.2 mph 69 % 0 in
12:54 48.4 °F 38.3 °F 30 in SSW 5.4 mph 15.2 mph 68 % 0 in
12:59 49.1 °F 39.4 °F 30 in SSW 9.8 mph 15.4 mph 69 % 0 in
13:04 49.5 °F 39.7 °F 30 in SW 14.5 mph 15.4 mph 69 % 0 in
13:09 50 °F 40.3 °F 30 in WSW 8.7 mph 16.1 mph 69 % 0 in
13:14 50 °F 39 °F 30 in SSW 13 mph 17.4 mph 66 % 0 in
13:19 50.2 °F 39.2 °F 30 in WSW 12.8 mph 17.4 mph 66 % 0 in
13:24 50.4 °F 39.7 °F 30 in SSW 10.5 mph 14.8 mph 67 % 0 in
13:29 50.5 °F 39.9 °F 30 in SSW 9.8 mph 14.8 mph 67 % 0 in
13:34 50.2 °F 38.5 °F 30 in SSW 17.2 mph 17.9 mph 64 % 0 in
13:39 50.2 °F 38.8 °F 30 in South 10.1 mph 19.7 mph 65 % 0 in
13:44 50.4 °F 39.4 °F 30 in SW 10.7 mph 19.7 mph 66 % 0 in
13:49 50.7 °F 39.7 °F 30 in WSW 12.3 mph 17 mph 66 % 0 in
13:54 50.9 °F 39 °F 30 in SW 10.1 mph 17.4 mph 64 % 0 in
13:59 51.4 °F 39.6 °F 30 in WSW 8.5 mph 17.7 mph 64 % 0 in
14:04 51.3 °F 39 °F 30 in SSW 12.8 mph 18.8 mph 63 % 0 in
14:09 51.6 °F 39.7 °F 30 in SW 13 mph 18.8 mph 64 % 0 in
14:14 51.4 °F 39.6 °F 30 in SSW 8.5 mph 18.8 mph 64 % 0 in
14:19 51.3 °F 39.6 °F 30 in WSW 12.1 mph 18.8 mph 64 % 0 in
14:24 51.1 °F 39.4 °F 30 in SSW 8.7 mph 16.8 mph 64 % 0 in
14:29 51.6 °F 40.6 °F 30 in SSW 15.2 mph 16.8 mph 66 % 0 in
14:34 51.6 °F 40.6 °F 30 in WSW 10.3 mph 15.2 mph 66 % 0 in
14:39 51.4 °F 39.9 °F 30 in WSW 16.1 mph 16.8 mph 65 % 0 in
14:44 51.1 °F 38.5 °F 30 in WSW 12.3 mph 17.4 mph 62 % 0 in
14:49 51.3 °F 38.7 °F 30 in SW 12.8 mph 23 mph 62 % 0 in
14:54 51.1 °F 39.4 °F 30 in SW 9.8 mph 23 mph 64 % 0 in
14:59 51.1 °F 39.4 °F 30 in SW 15.4 mph 17.4 mph 64 % 0 in
15:04 51.1 °F 40.1 °F 30 in WSW 14.8 mph 21.9 mph 66 % 0 in
15:09 50.9 °F 39.6 °F 30 in WSW 12.8 mph 21.9 mph 65 % 0 in
15:14 50.9 °F 39.9 °F 30 in WSW 11 mph 17 mph 66 % 0 in
15:19 50.5 °F 38.5 °F 30 in SW 13 mph 19.5 mph 63 % 0 in
15:24 50.5 °F 38.8 °F 30 in WSW 10.5 mph 19.5 mph 64 % 0 in
15:29 50.4 °F 39 °F 30 in WSW 15.4 mph 17.7 mph 65 % 0 in
15:34 50.4 °F 39.4 °F 30 in WSW 13.4 mph 17.7 mph 66 % 0 in
15:39 50.2 °F 39.6 °F 30 in SW 8.5 mph 15.2 mph 67 % 0 in
15:44 50.2 °F 39.2 °F 30 in WSW 12.8 mph 15.7 mph 66 % 0 in
15:49 50.2 °F 39.6 °F 30 in WSW 10.1 mph 15.7 mph 67 % 0 in
15:54 50.2 °F 39.6 °F 30 in SW 12.5 mph 14.1 mph 67 % 0 in
15:59 50 °F 39.6 °F 30 in SSW 8.1 mph 14.1 mph 67 % 0 in
16:04 50 °F 39.7 °F 30 in SW 8.7 mph 13.2 mph 68 % 0 in
16:09 50 °F 39.7 °F 30 in SW 12.5 mph 13.9 mph 68 % 0 in
16:14 50 °F 39.6 °F 30 in WSW 7.6 mph 14.8 mph 67 % 0 in
16:19 49.8 °F 39.7 °F 30 in SSW 12.5 mph 15.2 mph 68 % 0 in
16:24 49.8 °F 39.4 °F 30 in WSW 8.5 mph 15.2 mph 67 % 0 in
16:29 49.8 °F 39.7 °F 30 in WSW 9.8 mph 14.8 mph 68 % 0 in
16:34 49.8 °F 39.7 °F 30 in SW 5.8 mph 13.2 mph 68 % 0 in
16:39 49.8 °F 39.7 °F 30 in SW 12.8 mph 12.8 mph 68 % 0 in
16:44 49.6 °F 39 °F 30 in SW 10.3 mph 15.7 mph 67 % 0 in
16:49 49.6 °F 39.6 °F 30 in SSW 10.5 mph 15.7 mph 68 % 0 in
16:54 49.5 °F 39.4 °F 30 in WSW 7.6 mph 13 mph 68 % 0 in
16:59 49.5 °F 39.7 °F 30 in WSW 7.8 mph 13.6 mph 69 % 0 in
17:04 49.3 °F 39.6 °F 30 in SW 10.1 mph 13.6 mph 69 % 0 in
17:09 49.1 °F 39.4 °F 30 in SW 8.1 mph 11.9 mph 69 % 0 in
17:14 49.1 °F 39.4 °F 30 in SW 7.6 mph 12.3 mph 69 % 0 in
17:19 49.1 °F 39.4 °F 30 in SW 7.4 mph 12.3 mph 69 % 0 in
17:24 48.9 °F 39.6 °F 30 in SW 9.8 mph 11 mph 70 % 0 in
17:29 48.9 °F 39.6 °F 30 in SW 5.6 mph 10.5 mph 70 % 0 in
17:34 48.9 °F 39.6 °F 30 in SSW 5.6 mph 10.1 mph 70 % 0 in
17:39 48.9 °F 39.6 °F 30 in SSW 8.5 mph 11.4 mph 70 % 0 in
17:44 48.9 °F 39.6 °F 30 in WSW 8.5 mph 11.9 mph 70 % 0 in
17:49 48.7 °F 39.4 °F 30 in SW 5.6 mph 11.9 mph 70 % 0 in
17:54 48.7 °F 39.7 °F 30 in SSW 6 mph 8.5 mph 71 % 0 in
17:59 48.6 °F 39.6 °F 30 in WSW 6 mph 7.8 mph 71 % 0 in
18:04 48.4 °F 39.4 °F 30 in SW 4.3 mph 7.8 mph 71 % 0 in
18:05 48.4 °F 39.4 °F 30 in WSW 5.8 mph 7.8 mph 71 % 0 in
18:10 48.4 °F 39.7 °F 30 in WSW 6.3 mph 6.5 mph 72 % 0 in
18:15 48 °F 39.6 °F 30 in WSW 4.3 mph 7.8 mph 72 % 0 in
18:20 47.8 °F 39.6 °F 30 in West 4.9 mph 7.8 mph 73 % 0 in
18:25 47.5 °F 39.6 °F 30 in WSW 3.6 mph 7.4 mph 74 % 0 in
18:30 47.1 °F 39.4 °F 30 in WSW 2.9 mph 5.6 mph 74 % 0 in
18:35 46.8 °F 39.4 °F 30 in SW 3.8 mph 4.3 mph 75 % 0 in
18:40 46.6 °F 39 °F 30 in SW 3.1 mph 4.7 mph 75 % 0 in
18:45 46.2 °F 39 °F 30 in SW 2.7 mph 4.7 mph 76 % 0 in
18:50 46 °F 39 °F 30 in SW 2.7 mph 4 mph 76 % 0 in
18:55 45.9 °F 39 °F 30 in SW 3.6 mph 3.6 mph 77 % 0 in
19:00 46 °F 39.6 °F 30 in WSW 2.5 mph 4 mph 78 % 0 in
19:05 46 °F 39.6 °F 30 in WSW 2.9 mph 4 mph 78 % 0 in
19:10 45.9 °F 39.7 °F 30 in WSW 3.4 mph 3.6 mph 79 % 0 in
19:15 45.9 °F 40.1 °F 30 in WSW 2.9 mph 4 mph 80 % 0 in
19:20 45.9 °F 39.9 °F 30 in SW 2.7 mph 4 mph 80 % 0 in
19:25 45.9 °F 40.3 °F 30 in SSW 3.1 mph 4 mph 81 % 0 in
19:30 45.9 °F 40.5 °F 30 in SSW 4.9 mph 4.9 mph 81 % 0 in
19:35 45.9 °F 40.5 °F 30 in SSW 2.5 mph 4.9 mph 81 % 0 in
19:40 45.9 °F 40.5 °F 30 in SSW 0.9 mph 3.6 mph 81 % 0 in
19:45 45.9 °F 40.5 °F 30 in WSW 2.7 mph 3.6 mph 81 % 0 in
19:50 46 °F 40.6 °F 30 in SW 3.4 mph 4.9 mph 81 % 0 in
19:55 46 °F 40.6 °F 30 in SSW 2.5 mph 4.9 mph 81 % 0 in
20:00 46 °F 40.8 °F 30 in SSW 4 mph 7.4 mph 82 % 0 in
20:05 46.2 °F 41.2 °F 30 in SSW 2.9 mph 7.4 mph 82 % 0 in
20:10 46.2 °F 41.2 °F 30 in SW 4.3 mph 6 mph 82 % 0 in
20:15 46.6 °F 41.4 °F 30 in SSW 3.8 mph 7.4 mph 82 % 0 in
20:20 46.6 °F 41.4 °F 30 in SW 3.8 mph 7.4 mph 82 % 0 in
20:25 46.6 °F 41.4 °F 30 in SSW 3.1 mph 6 mph 82 % 0 in
20:30 46.8 °F 41.5 °F 30 in WSW 7.2 mph 7.8 mph 82 % 0 in
20:35 46.8 °F 41.5 °F 30 in SSW 5.8 mph 7.8 mph 82 % 0 in
20:40 46.9 °F 41.7 °F 30 in WSW 4.5 mph 7.8 mph 82 % 0 in
20:45 46.9 °F 41.5 °F 30 in SW 4.3 mph 7.8 mph 81 % 0 in
20:50 46.9 °F 41.5 °F 30 in SSW 5.8 mph 7.4 mph 81 % 0 in
20:55 46.9 °F 41.5 °F 29.9 in WSW 7.4 mph 8.7 mph 81 % 0 in
21:00 46.9 °F 41.5 °F 29.9 in SW 4.9 mph 9.8 mph 81 % 0 in
21:05 46.8 °F 41.4 °F 29.9 in WSW 7.2 mph 9.8 mph 81 % 0 in
21:10 46.8 °F 41.4 °F 29.9 in SW 6 mph 8.9 mph 81 % 0 in
21:15 46.8 °F 41.4 °F 29.9 in SW 2.5 mph 8.7 mph 81 % 0 in
21:20 46.6 °F 41.2 °F 29.9 in South 2.7 mph 6.3 mph 81 % 0 in
21:25 46.6 °F 40.8 °F 29.9 in South 4.3 mph 5.4 mph 81 % 0 in
21:30 46.2 °F 40.8 °F 29.9 in SSW 2.5 mph 7.4 mph 81 % 0 in
21:35 46.2 °F 40.8 °F 29.9 in South 4.7 mph 7.4 mph 81 % 0 in
21:40 46.2 °F 41.2 °F 29.9 in SSW 3.6 mph 6.5 mph 82 % 0 in
21:45 46.2 °F 41.2 °F 29.9 in SSW 4 mph 6 mph 82 % 0 in
21:50 46.2 °F 41.2 °F 29.9 in South 4 mph 6 mph 82 % 0 in
21:55 46 °F 40.8 °F 29.9 in SSW 3.6 mph 6 mph 82 % 0 in
22:00 46 °F 40.8 °F 29.9 in SSW 3.1 mph 5.8 mph 82 % 0 in
22:05 46 °F 40.8 °F 29.9 in SW 2.9 mph 5.8 mph 82 % 0 in
22:10 45.9 °F 41.2 °F 29.9 in South 3.8 mph 5.8 mph 83 % 0 in
22:15 45.9 °F 40.6 °F 29.9 in SSW 5.6 mph 8.5 mph 82 % 0 in
22:20 45.9 °F 40.6 °F 29.9 in South 6.3 mph 8.5 mph 82 % 0 in
22:21 45.9 °F 40.6 °F 29.9 in SSW 5.4 mph 7.6 mph 82 % 0 in
22:26 45.9 °F 40.6 °F 29.9 in SSE 7.6 mph 7.6 mph 82 % 0 in
22:31 45.9 °F 40.5 °F 29.9 in SSW 6.5 mph 9.4 mph 81 % 0 in
22:36 46 °F 40.3 °F 29.9 in South 4.7 mph 9.4 mph 80 % 0 in
22:41 46 °F 40.3 °F 29.9 in SW 4.9 mph 7.2 mph 80 % 0 in
22:46 45.9 °F 40.1 °F 29.9 in SSW 7.4 mph 7.4 mph 80 % 0 in
22:51 45.9 °F 40.5 °F 29.9 in SSW 3.6 mph 7.4 mph 81 % 0 in
22:56 45.9 °F 40.5 °F 29.9 in South 4.9 mph 8.1 mph 81 % 0 in
22:58 45.9 °F 40.5 °F 29.9 in SSW 6 mph 8.1 mph 81 % 0 in
23:03 45.9 °F 40.5 °F 29.9 in SSW 5.6 mph 9.2 mph 81 % 0 in
23:08 45.9 °F 40.5 °F 29.9 in SSW 7.8 mph 9.2 mph 81 % 0 in
23:13 45.9 °F 40.5 °F 29.9 in WSW 7.4 mph 8.7 mph 81 % 0 in
23:18 46 °F 40.6 °F 29.9 in SSW 6.3 mph 11 mph 81 % 0 in
23:20 46 °F 40.6 °F 29.9 in SSW 6.3 mph 11 mph 81 % 0 in
23:25 46.2 °F 40.5 °F 29.9 in SSW 5.4 mph 11 mph 80 % 0 in
23:30 46.6 °F 40.3 °F 29.9 in SSW 12.1 mph 12.1 mph 79 % 0 in
23:35 46.6 °F 40.1 °F 29.9 in SSW 6.5 mph 12.1 mph 78 % 0 in
23:40 46.8 °F 39.9 °F 29.9 in SSW 7.8 mph 13.9 mph 77 % 0 in
23:45 46.8 °F 39.9 °F 29.9 in South 10.3 mph 13.9 mph 77 % 0 in
23:50 46.9 °F 39.7 °F 29.9 in SW 5.8 mph 13.4 mph 76 % 0 in
23:55 46.9 °F 39.7 °F 29.9 in SSW 9.2 mph 11.9 mph 76 % 0 in
Le Gheer Warneton
Courtoisie de Weather Underground - 2.25 mb

Mise a jour : 17-12-17 09:02:12
Généré par Cumulus 1.9.4 (1099)